CZ-6A DEB, 54551

Orbit data source: Space-Track

CZ-6A DEB, 54551 is space debris in SSO originally from a launch on Fri, 11 Nov 2022 UTC launched from the Taiyaun Space Center, China (TSC). Debris objects in space refer to the collection of defunct objects orbiting the Earth. Examples of debris include non-operational satellites, rocket bodies, and fragments generated from explosions, collisions, or faulty payload assembly.

Loading next visibility...
Identifier
54551, 2022-151LB
Orbit
SSO
Country
Flag of CNCN / PRC
Related business
Manufacturer
SAST
Mission
Spacecraft
Bus & Motor
Unknown
Mass
Unknown
Launch date (UTC)
2022-11-11 (4 years ago)
Launch vehicle
Unknown
Launch site
Taiyaun Space Center, China (TSC)
Object type
Payload
Rocket body
Debris
Shape & HBR
Unknown shape, 0.4 m
Radar Cross Section
Medium (>0.1 m² and <1 m²)

Expand to show TLE details & history
Last TLE update: 12 hours ago

TLE from 12 hours ago
0 CZ-6A DEB
1 54551U 22151LB  26175.19722775  .00000469  00000-0  33356-3 0  9994
2 54551  98.8736 149.1139 0106632  37.9277 322.9337 13.99574621184238
Epoch: 2026-06-24T04:44Z
TLE epoch observation values (Epoch: 2026-06-24T04:44:00.477Z)
Latitude
-0.00008°
Longitude
165.75403°
Altitude
836.556 km
Speed
7.466 km/s
True Right ascension
09h 56m 27s
True Declination
0° 00' 00"
Sunlit
Object was in daylight at epoch
Visualization orbit readout
Latitude
Unknown
Longitude
Unknown
Altitude
Unknown
Speed
Unknown
Apparent Right ascension
Unknown
Apparent Declination
Unknown
Sunlit
N/A
Visualization observer readout
Local Sidereal Time
03:31:07
Azimuth
Unknown
Elevation
Unknown
Doppler factor
Unknown
Orbital elements
Apogee altitude
969.99 km
Perigee altitude
814.934 km
Semi-major axis
7,270.599 km
Eccentricity
0.01066
Inclination
98.8736°
RAAN
149.1139°
Arg. of periapsis
37.9277°
True anomaly
322.18931°
Mean anomaly
322.9337°
Eccentric anomaly
322.5623°
Mean motion
3.50097 °/min
Orbital period
102.83 mins
BSTAR
0.00033356
Loading maneuver chart data...
Computing Atmospheric mass density...
Loading historical data...
Loading historical data...
Loading historical data...
Loading historical data...
Loading historical data...
Loading historical data...
Loading historical data...

Documentation

Showing up to 5 results
|